Time,TemperatureF,DewpointF,PressureIn,WindDirection,WindDirectionDegrees,WindSpeedMPH,WindSpeedGustMPH,Humidity,HourlyPrecipIn,Conditions,Clouds,dailyrainin,SolarRadiationWatts/m^2,SoftwareType,DateUTC
2013-02-01 00:04:00,34.3,26.9,30.07,East,84,3.0,6.0,74,0.00,,,0.00,0,Wunderground v.1.15,2013-02-01 07:04:00,
2013-02-01 00:10:00,34.7,27.3,30.07,ENE,59,3.0,3.0,74,0.00,,,0.00,0,Wunderground v.1.15,2013-02-01 07:10:00,
2013-02-01 00:16:00,34.9,27.1,30.07,ESE,103,3.0,6.0,73,0.00,,,0.00,0,Wunderground v.1.15,2013-02-01 07:16:00,
2013-02-01 00:22:00,35.0,27.2,30.07,East,100,3.0,3.0,73,0.00,,,0.00,0,Wunderground v.1.15,2013-02-01 07:22:00,
2013-02-01 00:28:00,35.1,27.0,30.07,East,100,1.0,3.0,72,0.00,,,0.00,0,Wunderground v.1.15,2013-02-01 07:28:00,
2013-02-01 00:34:00,35.1,27.0,30.07,East,100,0.0,1.0,72,0.00,,,0.00,0,Wunderground v.1.15,2013-02-01 07:34:00,
2013-02-01 00:40:00,35.1,26.6,30.07,ENE,75,1.0,3.0,71,0.00,,,0.00,0,Wunderground v.1.15,2013-02-01 07:40:00,
2013-02-01 00:46:00,35.1,26.6,30.07,ENE,66,3.0,3.0,71,0.00,,,0.00,0,Wunderground v.1.15,2013-02-01 07:46:00,
2013-02-01 00:52:00,35.3,26.8,30.07,East,80,4.0,4.0,71,0.00,,,0.00,0,Wunderground v.1.15,2013-02-01 07:52:00,
2013-02-01 00:58:00,35.4,26.9,30.07,ENE,75,2.0,4.0,71,0.00,,,0.00,0,Wunderground v.1.15,2013-02-01 07:58:00,
2013-02-01 01:04:00,35.5,26.7,30.07,ENE,76,1.0,4.0,70,0.00,,,0.00,0,Wunderground v.1.15,2013-02-01 08:04:00,
2013-02-01 01:10:00,35.5,27.0,30.07,ENE,58,2.0,2.0,71,0.00,,,0.00,0,Wunderground v.1.15,2013-02-01 08:10:00,
2013-02-01 01:16:00,35.5,26.7,30.07,ENE,58,1.0,2.0,70,0.00,,,0.00,0,Wunderground v.1.15,2013-02-01 08:16:00,
2013-02-01 01:22:00,35.5,26.7,30.06,ENE,58,0.0,0.0,70,0.00,,,0.00,0,Wunderground v.1.15,2013-02-01 08:22:00,
2013-02-01 01:28:00,35.4,26.6,30.06,ENE,58,0.0,0.0,70,0.00,,,0.00,0,Wunderground v.1.15,2013-02-01 08:28:00,
2013-02-01 01:34:00,35.3,26.5,30.06,ENE,58,0.0,0.0,70,0.00,,,0.00,0,Wunderground v.1.15,2013-02-01 08:34:00,
2013-02-01 01:40:00,35.1,26.3,30.06,ENE,58,0.0,5.0,70,0.00,,,0.00,0,Wunderground v.1.15,2013-02-01 08:40:00,
2013-02-01 01:46:00,34.8,26.4,30.06,NNE,13,1.0,5.0,71,0.00,,,0.00,0,Wunderground v.1.15,2013-02-01 08:46:00,
2013-02-01 01:52:00,34.7,26.6,30.06,NNE,13,1.0,2.0,72,0.00,,,0.00,0,Wunderground v.1.15,2013-02-01 08:52:00,
2013-02-01 01:58:00,34.6,26.5,30.06,ESE,114,1.0,2.0,72,0.00,,,0.00,0,Wunderground v.1.15,2013-02-01 08:58:00,
2013-02-01 02:04:00,34.6,26.8,30.07,SE,124,1.0,5.0,73,0.00,,,0.00,0,Wunderground v.1.15,2013-02-01 09:04:00,
2013-02-01 02:10:00,34.8,27.0,30.06,ENE,78,3.0,3.0,73,0.00,,,0.00,0,Wunderground v.1.15,2013-02-01 09:10:00,
2013-02-01 02:16:00,35.2,27.1,30.06,ESE,105,4.0,5.0,72,0.00,,,0.00,0,Wunderground v.1.15,2013-02-01 09:16:00,
2013-02-01 02:22:00,35.4,26.9,30.06,ESE,120,3.0,4.0,71,0.00,,,0.00,0,Wunderground v.1.15,2013-02-01 09:22:00,
2013-02-01 02:28:00,35.6,26.8,30.06,East,80,3.0,4.0,70,0.00,,,0.00,0,Wunderground v.1.15,2013-02-01 09:28:00,
2013-02-01 02:34:00,35.6,26.8,30.06,East,80,1.0,2.0,70,0.00,,,0.00,0,Wunderground v.1.15,2013-02-01 09:34:00,
2013-02-01 02:40:00,35.6,26.8,30.06,ESE,105,1.0,3.0,70,0.00,,,0.00,0,Wunderground v.1.15,2013-02-01 09:40:00,
2013-02-01 02:46:00,35.5,26.7,30.06,ESE,107,1.0,3.0,70,0.00,,,0.00,0,Wunderground v.1.15,2013-02-01 09:46:00,
2013-02-01 02:52:00,35.5,26.7,30.06,ESE,107,1.0,1.0,70,0.00,,,0.00,0,Wunderground v.1.15,2013-02-01 09:52:00,
2013-02-01 02:58:00,35.6,26.8,30.06,SE,128,1.0,3.0,70,0.00,,,0.00,0,Wunderground v.1.15,2013-02-01 09:58:00,
2013-02-01 03:04:00,35.6,26.4,30.06,ESE,123,2.0,5.0,69,0.00,,,0.00,0,Wunderground v.1.15,2013-02-01 10:04:00,
2013-02-01 03:10:00,35.6,26.4,30.05,ESE,123,2.0,2.0,69,0.00,,,0.00,0,Wunderground v.1.15,2013-02-01 10:10:00,
2013-02-01 03:16:00,35.7,26.5,30.06,ESE,122,1.0,2.0,69,0.00,,,0.00,0,Wunderground v.1.15,2013-02-01 10:16:00,
2013-02-01 03:22:00,35.7,26.5,30.06,ESE,122,0.0,0.0,69,0.00,,,0.00,0,Wunderground v.1.15,2013-02-01 10:22:00,
2013-02-01 03:28:00,35.6,26.4,30.05,ESE,122,0.0,2.0,69,0.00,,,0.00,0,Wunderground v.1.15,2013-02-01 10:28:00,
2013-02-01 03:34:00,35.5,26.3,30.05,ESE,122,2.0,3.0,69,0.00,,,0.00,0,Wunderground v.1.15,2013-02-01 10:34:00,
2013-02-01 03:40:00,35.4,26.6,30.05,SE,128,3.0,7.0,70,0.00,,,0.00,0,Wunderground v.1.15,2013-02-01 10:40:00,
2013-02-01 03:46:00,35.6,26.8,30.05,ESE,119,4.0,5.0,70,0.00,,,0.00,0,Wunderground v.1.15,2013-02-01 10:46:00,
2013-02-01 03:52:00,35.8,26.6,30.06,SE,125,5.0,6.0,69,0.00,,,0.00,0,Wunderground v.1.15,2013-02-01 10:52:00,
2013-02-01 03:58:00,35.9,26.7,30.06,ESE,115,5.0,6.0,69,0.00,,,0.00,0,Wunderground v.1.15,2013-02-01 10:58:00,
2013-02-01 04:04:00,36.0,26.8,30.06,ESE,115,2.0,4.0,69,0.00,,,0.00,0,Wunderground v.1.15,2013-02-01 11:04:00,
2013-02-01 04:10:00,35.9,26.7,30.06,SE,125,2.0,2.0,69,0.00,,,0.00,0,Wunderground v.1.15,2013-02-01 11:10:00,
2013-02-01 04:16:00,35.9,26.7,30.05,SE,125,2.0,2.0,69,0.00,,,0.00,0,Wunderground v.1.15,2013-02-01 11:16:00,
2013-02-01 04:22:00,35.7,26.2,30.05,SE,125,0.0,0.0,68,0.00,,,0.00,0,Wunderground v.1.15,2013-02-01 11:22:00,
2013-02-01 04:28:00,35.5,26.3,30.04,NE,48,0.0,0.0,69,0.00,,,0.00,0,Wunderground v.1.15,2013-02-01 11:28:00,
2013-02-01 04:34:00,35.1,26.3,30.04,NE,48,0.0,4.0,70,0.00,,,0.00,0,Wunderground v.1.15,2013-02-01 11:34:00,
2013-02-01 04:40:00,34.7,26.3,30.04,NNE,26,3.0,5.0,71,0.00,,,0.00,0,Wunderground v.1.15,2013-02-01 11:40:00,
2013-02-01 04:46:00,34.6,26.2,30.04,SE,126,4.0,5.0,71,0.00,,,0.00,0,Wunderground v.1.15,2013-02-01 11:46:00,
2013-02-01 04:52:00,34.6,25.8,30.04,NE,49,2.0,2.0,70,0.00,,,0.00,0,Wunderground v.1.15,2013-02-01 11:52:00,
2013-02-01 04:58:00,34.6,25.8,30.05,SSE,163,2.0,3.0,70,0.00,,,0.00,0,Wunderground v.1.15,2013-02-01 11:58:00,
2013-02-01 05:04:00,34.7,25.9,30.05,SW,221,3.0,7.0,70,0.00,,,0.00,0,Wunderground v.1.15,2013-02-01 12:04:00,
2013-02-01 05:10:00,34.8,26.0,30.06,SSW,205,3.0,7.0,70,0.00,,,0.00,0,Wunderground v.1.15,2013-02-01 12:10:00,
2013-02-01 05:16:00,35.0,25.9,30.06,South,173,5.0,14.0,69,0.00,,,0.00,0,Wunderground v.1.15,2013-02-01 12:16:00,
2013-02-01 05:22:00,35.5,26.3,30.06,South,173,10.0,10.0,69,0.00,,,0.00,0,Wunderground v.1.15,2013-02-01 12:22:00,
2013-02-01 05:28:00,35.6,26.4,30.07,South,175,7.0,8.0,69,0.00,,,0.00,0,Wunderground v.1.15,2013-02-01 12:28:00,
2013-02-01 05:34:00,35.5,26.3,30.07,SSE,163,5.0,7.0,69,0.00,,,0.00,0,Wunderground v.1.15,2013-02-01 12:34:00,
2013-02-01 05:40:00,35.3,26.1,30.07,SSE,165,3.0,3.0,69,0.00,,,0.00,0,Wunderground v.1.15,2013-02-01 12:40:00,
2013-02-01 05:46:00,35.2,26.0,30.07,SSE,153,3.0,10.0,69,0.00,,,0.00,0,Wunderground v.1.15,2013-02-01 12:46:00,
2013-02-01 05:52:00,35.0,26.2,30.07,SSW,192,4.0,5.0,70,0.00,,,0.00,0,Wunderground v.1.15,2013-02-01 12:52:00,
2013-02-01 05:58:00,34.9,26.8,30.08,South,184,6.0,7.0,72,0.00,,,0.00,0,Wunderground v.1.15,2013-02-01 12:58:00,
2013-02-01 06:04:00,34.8,26.7,30.07,SW,221,7.0,7.0,72,0.00,,,0.00,0,Wunderground v.1.15,2013-02-01 13:04:00,
2013-02-01 06:10:00,34.7,26.3,30.07,WSW,241,7.0,7.0,71,0.00,,,0.00,0,Wunderground v.1.15,2013-02-01 13:10:00,
2013-02-01 06:16:00,34.6,26.5,30.08,South,188,5.0,10.0,72,0.00,,,0.00,0,Wunderground v.1.15,2013-02-01 13:16:00,
2013-02-01 06:22:00,34.5,26.7,30.08,West,263,6.0,6.0,73,0.00,,,0.00,0,Wunderground v.1.15,2013-02-01 13:22:00,
2013-02-01 06:28:00,34.4,27.0,30.08,SW,234,4.0,7.0,74,0.00,,,0.00,0,Wunderground v.1.15,2013-02-01 13:28:00,
2013-02-01 06:34:00,34.3,27.2,30.09,SW,217,6.0,7.0,75,0.00,,,0.00,0,Wunderground v.1.15,2013-02-01 13:34:00,
2013-02-01 06:40:00,34.3,27.5,30.09,SSW,212,5.0,5.0,76,0.00,,,0.00,0,Wunderground v.1.15,2013-02-01 13:40:00,
2013-02-01 06:46:00,34.3,28.5,30.10,WSW,245,5.0,8.0,79,0.00,,,0.00,0,Wunderground v.1.15,2013-02-01 13:46:00,
2013-02-01 06:52:00,33.9,29.0,30.10,SW,218,5.0,5.0,82,0.00,,,0.00,0,Wunderground v.1.15,2013-02-01 13:52:00,
2013-02-01 06:58:00,33.6,29.0,30.11,SW,217,3.0,5.0,83,0.00,,,0.00,0,Wunderground v.1.15,2013-02-01 13:58:00,
2013-02-01 07:04:00,33.3,29.0,30.11,SSE,160,2.0,6.0,84,0.00,,,0.00,0,Wunderground v.1.15,2013-02-01 14:04:00,
2013-02-01 07:10:00,33.0,29.0,30.11,SW,228,2.0,2.0,85,0.00,,,0.00,0,Wunderground v.1.15,2013-02-01 14:10:00,
2013-02-01 07:16:00,32.7,28.7,30.12,SW,228,1.0,2.0,85,0.00,,,0.00,0,Wunderground v.1.15,2013-02-01 14:16:00,
2013-02-01 07:22:00,32.5,28.5,30.11,SW,227,0.0,0.0,85,0.00,,,0.00,0,Wunderground v.1.15,2013-02-01 14:22:00,
2013-02-01 07:28:00,32.1,28.1,30.12,SE,146,0.0,1.0,85,0.00,,,0.00,0,Wunderground v.1.15,2013-02-01 14:28:00,
2013-02-01 07:34:00,31.7,27.7,30.12,SSE,165,1.0,2.0,85,0.00,,,0.00,0,Wunderground v.1.15,2013-02-01 14:34:00,
2013-02-01 07:40:00,31.4,27.4,30.12,SSE,165,1.0,1.0,85,0.00,,,0.00,0,Wunderground v.1.15,2013-02-01 14:40:00,
2013-02-01 07:46:00,31.1,27.4,30.13,SE,124,1.0,3.0,86,0.00,,,0.00,0,Wunderground v.1.15,2013-02-01 14:46:00,
2013-02-01 07:52:00,31.2,27.8,30.12,SSE,151,4.0,4.0,87,0.00,,,0.00,0,Wunderground v.1.15,2013-02-01 14:52:00,
2013-02-01 07:58:00,31.3,27.9,30.12,SSE,157,6.0,6.0,87,0.00,,,0.00,0,Wunderground v.1.15,2013-02-01 14:58:00,
2013-02-01 08:04:00,31.4,28.0,30.12,SE,146,7.0,7.0,87,0.00,,,0.00,0,Wunderground v.1.15,2013-02-01 15:04:00,
2013-02-01 08:10:00,31.5,27.8,30.12,SE,144,6.0,12.0,86,0.00,,,0.00,5,Wunderground v.1.15,2013-02-01 15:10:00,
2013-02-01 08:16:00,31.8,28.4,30.13,SSE,153,8.0,12.0,87,0.00,,,0.00,5,Wunderground v.1.15,2013-02-01 15:16:00,
2013-02-01 08:22:00,31.9,27.9,30.13,SSE,165,6.0,7.0,85,0.00,,,0.00,7,Wunderground v.1.15,2013-02-01 15:22:00,
2013-02-01 08:28:00,31.9,27.6,30.13,SSE,157,3.0,7.0,84,0.00,,,0.00,9,Wunderground v.1.15,2013-02-01 15:28:00,
2013-02-01 08:34:00,31.9,27.6,30.13,SSE,157,1.0,3.0,84,0.00,,,0.00,11,Wunderground v.1.15,2013-02-01 15:34:00,
2013-02-01 08:40:00,31.8,27.2,30.14,SSE,159,0.0,0.0,83,0.00,,,0.00,12,Wunderground v.1.15,2013-02-01 15:40:00,
2013-02-01 08:46:00,31.7,26.8,30.14,WSW,252,2.0,2.0,82,0.00,,,0.00,30,Wunderground v.1.15,2013-02-01 15:46:00,
2013-02-01 08:52:00,31.9,27.0,30.14,WSW,253,2.0,2.0,82,0.00,,,0.00,54,Wunderground v.1.15,2013-02-01 15:52:00,
2013-02-01 08:58:00,32.1,27.2,30.15,SE,142,0.0,5.0,82,0.00,,,0.00,44,Wunderground v.1.15,2013-02-01 15:58:00,
2013-02-01 09:04:00,32.3,27.4,30.15,SE,144,1.0,1.0,82,0.00,,,0.00,53,Wunderground v.1.15,2013-02-01 16:04:00,
2013-02-01 09:10:00,32.6,27.4,30.15,SW,221,0.0,2.0,81,0.00,,,0.00,60,Wunderground v.1.15,2013-02-01 16:10:00,
2013-02-01 09:16:00,32.9,27.1,30.16,East,87,1.0,2.0,79,0.00,,,0.00,62,Wunderground v.1.15,2013-02-01 16:16:00,
2013-02-01 09:22:00,33.2,27.4,30.16,SSE,162,2.0,3.0,79,0.00,,,0.00,79,Wunderground v.1.15,2013-02-01 16:22:00,
2013-02-01 09:28:00,33.7,27.9,30.16,SSE,154,2.0,3.0,79,0.00,,,0.00,315,Wunderground v.1.15,2013-02-01 16:28:00,
2013-02-01 09:36:00,34.7,26.9,30.16,SSE,167,7.0,16.0,73,0.00,,,0.00,213,Wunderground v.1.15,2013-02-01 16:36:00,
2013-02-01 09:42:00,35.2,26.7,30.17,SSE,158,11.0,14.0,71,0.00,,,0.00,120,Wunderground v.1.15,2013-02-01 16:42:00,
2013-02-01 09:48:00,35.4,26.6,30.17,South,178,10.0,15.0,70,0.00,,,0.00,114,Wunderground v.1.15,2013-02-01 16:48:00,
2013-02-01 09:54:00,35.6,25.7,30.17,SSE,165,10.0,16.0,67,0.00,,,0.01,100,Wunderground v.1.15,2013-02-01 16:54:00,
2013-02-01 10:00:00,35.6,26.1,30.18,South,176,10.0,17.0,68,0.00,,,0.01,102,Wunderground v.1.15,2013-02-01 17:00:00,
2013-02-01 10:06:00,35.6,25.0,30.18,South,169,11.0,17.0,65,0.00,,,0.01,79,Wunderground v.1.15,2013-02-01 17:06:00,
2013-02-01 10:14:00,35.5,24.9,30.18,South,180,9.0,10.0,65,0.00,,,0.01,81,Wunderground v.1.15,2013-02-01 17:14:00,
2013-02-01 10:20:00,35.5,24.5,30.18,SSE,155,9.0,13.0,64,0.00,,,0.01,410,Wunderground v.1.15,2013-02-01 17:20:00,
2013-02-01 10:26:00,35.9,24.1,30.18,South,186,11.0,13.0,62,0.00,,,0.01,84,Wunderground v.1.15,2013-02-01 17:26:00,
2013-02-01 10:32:00,36.1,25.1,30.19,South,189,10.0,12.0,64,0.00,,,0.01,102,Wunderground v.1.15,2013-02-01 17:32:00,
2013-02-01 10:38:00,36.3,25.3,30.19,SSE,148,7.0,12.0,64,0.00,,,0.01,121,Wunderground v.1.15,2013-02-01 17:38:00,
2013-02-01 10:44:00,36.5,24.7,30.19,SSE,161,7.0,9.0,62,0.00,,,0.01,142,Wunderground v.1.15,2013-02-01 17:44:00,
2013-02-01 10:50:00,36.6,24.8,30.20,South,169,7.0,13.0,62,0.00,,,0.01,134,Wunderground v.1.15,2013-02-01 17:50:00,
2013-02-01 10:56:00,36.7,25.3,30.20,SE,146,8.0,13.0,63,0.00,,,0.01,151,Wunderground v.1.15,2013-02-01 17:56:00,
2013-02-01 11:02:00,36.8,25.0,30.20,SSE,148,6.0,7.0,62,0.00,,,0.01,183,Wunderground v.1.15,2013-02-01 18:02:00,
2013-02-01 11:08:00,37.1,25.7,30.21,SSE,164,5.0,7.0,63,0.00,,,0.02,490,Wunderground v.1.15,2013-02-01 18:08:00,
2013-02-01 11:14:00,37.7,25.8,30.21,SSE,149,6.0,9.0,62,0.00,,,0.02,288,Wunderground v.1.15,2013-02-01 18:14:00,
2013-02-01 11:20:00,38.3,25.2,30.21,SSE,161,7.0,7.0,59,0.00,,,0.02,281,Wunderground v.1.15,2013-02-01 18:20:00,
2013-02-01 11:26:00,38.6,25.5,30.21,SSE,163,6.0,7.0,59,0.00,,,0.02,257,Wunderground v.1.15,2013-02-01 18:26:00,
2013-02-01 11:32:00,38.6,25.5,30.20,SSE,160,6.0,7.0,59,0.00,,,0.02,211,Wunderground v.1.15,2013-02-01 18:32:00,
2013-02-01 11:38:00,38.5,25.0,30.21,South,173,6.0,11.0,58,0.00,,,0.02,148,Wunderground v.1.15,2013-02-01 18:38:00,
2013-02-01 11:44:00,38.6,25.1,30.20,SSE,155,7.0,10.0,58,0.00,,,0.02,148,Wunderground v.1.15,2013-02-01 18:44:00,
2013-02-01 11:50:00,39.2,26.1,30.20,SSW,197,8.0,9.0,59,0.00,,,0.02,520,Wunderground v.1.15,2013-02-01 18:50:00,
2013-02-01 11:56:00,39.7,25.7,30.20,SSE,168,9.0,13.0,57,0.00,,,0.02,519,Wunderground v.1.15,2013-02-01 18:56:00,
2013-02-01 12:02:00,40.0,24.7,30.20,SSE,168,11.0,15.0,54,0.00,,,0.02,543,Wunderground v.1.15,2013-02-01 19:02:00,
2013-02-01 12:08:00,40.0,25.1,30.20,SSE,167,13.0,17.0,55,0.00,,,0.02,548,Wunderground v.1.15,2013-02-01 19:08:00,
2013-02-01 12:14:00,40.1,24.8,30.21,SSE,157,12.0,13.0,54,0.00,,,0.02,564,Wunderground v.1.15,2013-02-01 19:14:00,
2013-02-01 12:20:00,39.9,23.7,30.20,SSE,155,12.0,13.0,52,0.00,,,0.02,172,Wunderground v.1.15,2013-02-01 19:20:00,
2013-02-01 12:26:00,39.1,23.4,30.20,South,178,11.0,13.0,53,0.00,,,0.02,130,Wunderground v.1.15,2013-02-01 19:26:00,
2013-02-01 12:32:00,38.9,24.5,30.21,SSE,163,12.0,14.0,56,0.00,,,0.02,257,Wunderground v.1.15,2013-02-01 19:32:00,
2013-02-01 12:38:00,38.7,23.9,30.21,SSE,160,14.0,15.0,55,0.00,,,0.02,206,Wunderground v.1.15,2013-02-01 19:38:00,
2013-02-01 12:44:00,38.8,24.0,30.20,SSE,150,13.0,15.0,55,0.00,,,0.02,700,Wunderground v.1.15,2013-02-01 19:44:00,
2013-02-01 12:50:00,39.2,24.4,30.21,SSE,155,13.0,13.0,55,0.00,,,0.02,336,Wunderground v.1.15,2013-02-01 19:50:00,
2013-02-01 12:56:00,39.8,24.0,30.20,South,169,14.0,19.0,53,0.00,,,0.02,594,Wunderground v.1.15,2013-02-01 19:56:00,
2013-02-01 13:02:00,40.1,23.4,30.20,SSE,159,15.0,17.0,51,0.00,,,0.02,555,Wunderground v.1.15,2013-02-01 20:02:00,
2013-02-01 13:08:00,40.2,23.5,30.20,SSE,147,14.0,17.0,51,0.00,,,0.02,652,Wunderground v.1.15,2013-02-01 20:08:00,
2013-02-01 13:14:00,40.2,23.0,30.20,SSE,154,16.0,16.0,50,0.00,,,0.02,243,Wunderground v.1.15,2013-02-01 20:14:00,
2013-02-01 13:20:00,40.0,23.3,30.21,South,171,15.0,15.0,51,0.00,,,0.02,253,Wunderground v.1.15,2013-02-01 20:20:00,
2013-02-01 13:26:00,40.2,23.5,30.20,SSE,166,14.0,15.0,51,0.00,,,0.02,295,Wunderground v.1.15,2013-02-01 20:26:00,
2013-02-01 13:32:00,40.5,24.2,30.20,South,186,11.0,12.0,52,0.00,,,0.02,629,Wunderground v.1.15,2013-02-01 20:32:00,
2013-02-01 13:38:00,41.1,24.3,30.20,SSE,164,11.0,13.0,51,0.00,,,0.02,622,Wunderground v.1.15,2013-02-01 20:38:00,
2013-02-01 13:44:00,41.4,23.2,30.20,SSE,163,12.0,16.0,48,0.00,,,0.02,563,Wunderground v.1.15,2013-02-01 20:44:00,
2013-02-01 13:50:00,41.4,23.6,30.20,South,178,13.0,14.0,49,0.00,,,0.02,582,Wunderground v.1.15,2013-02-01 20:50:00,
2013-02-01 13:56:00,41.1,22.9,30.20,SE,142,14.0,14.0,48,0.00,,,0.02,555,Wunderground v.1.15,2013-02-01 20:56:00,
2013-02-01 14:02:00,41.2,23.5,30.20,SE,141,15.0,21.0,49,0.00,,,0.02,568,Wunderground v.1.15,2013-02-01 21:02:00,
2013-02-01 14:08:00,41.5,23.2,30.20,SSE,158,13.0,21.0,48,0.00,,,0.02,529,Wunderground v.1.15,2013-02-01 21:08:00,
2013-02-01 14:14:00,41.6,23.3,30.19,SSE,158,12.0,16.0,48,0.00,,,0.02,499,Wunderground v.1.15,2013-02-01 21:14:00,
2013-02-01 14:20:00,41.5,23.2,30.19,South,176,13.0,13.0,48,0.00,,,0.02,485,Wunderground v.1.15,2013-02-01 21:20:00,
2013-02-01 14:26:00,41.4,23.2,30.19,South,180,14.0,17.0,48,0.00,,,0.02,471,Wunderground v.1.15,2013-02-01 21:26:00,
2013-02-01 14:32:00,41.3,23.1,30.19,South,171,14.0,14.0,48,0.00,,,0.02,485,Wunderground v.1.15,2013-02-01 21:32:00,
2013-02-01 14:38:00,41.2,23.0,30.19,South,177,14.0,18.0,48,0.00,,,0.02,385,Wunderground v.1.15,2013-02-01 21:38:00,
2013-02-01 14:44:00,41.0,22.8,30.19,South,180,14.0,15.0,48,0.00,,,0.02,438,Wunderground v.1.15,2013-02-01 21:44:00,
2013-02-01 14:50:00,40.9,21.7,30.19,SSW,192,14.0,14.0,46,0.00,,,0.02,415,Wunderground v.1.15,2013-02-01 21:50:00,
2013-02-01 14:56:00,40.8,22.1,30.18,SSE,150,14.0,18.0,47,0.00,,,0.02,406,Wunderground v.1.15,2013-02-01 21:56:00,
2013-02-01 15:02:00,40.7,22.5,30.18,SSE,165,13.0,14.0,48,0.00,,,0.02,394,Wunderground v.1.15,2013-02-01 22:02:00,
2013-02-01 15:08:00,40.9,22.2,30.19,South,171,13.0,14.0,47,0.00,,,0.02,390,Wunderground v.1.15,2013-02-01 22:08:00,
2013-02-01 15:16:00,41.0,22.8,30.20,SSE,163,13.0,15.0,48,0.00,,,0.02,343,Wunderground v.1.15,2013-02-01 22:16:00,
2013-02-01 15:22:00,41.0,22.3,30.20,SSE,165,12.0,13.0,47,0.00,,,0.02,225,Wunderground v.1.15,2013-02-01 22:22:00,
2013-02-01 15:28:00,41.0,22.3,30.20,South,171,11.0,16.0,47,0.00,,,0.02,211,Wunderground v.1.15,2013-02-01 22:28:00,
2013-02-01 15:34:00,40.8,21.6,30.20,South,175,11.0,11.0,46,0.00,,,0.02,121,Wunderground v.1.15,2013-02-01 22:34:00,
2013-02-01 15:40:00,40.5,21.8,30.21,SE,133,12.0,12.0,47,0.00,,,0.02,90,Wunderground v.1.15,2013-02-01 22:40:00,
2013-02-01 15:48:00,39.7,21.6,30.20,South,175,14.0,17.0,48,0.00,,,0.02,86,Wunderground v.1.15,2013-02-01 22:48:00,
2013-02-01 15:54:00,39.2,21.6,30.21,SSE,159,13.0,15.0,49,0.00,,,0.02,88,Wunderground v.1.15,2013-02-01 22:54:00,
2013-02-01 16:00:00,39.0,21.9,30.21,South,182,14.0,14.0,50,0.00,,,0.02,190,Wunderground v.1.15,2013-02-01 23:00:00,
2013-02-01 16:06:00,39.0,21.9,30.21,SSE,161,14.0,18.0,50,0.00,,,0.02,81,Wunderground v.1.15,2013-02-01 23:06:00,
2013-02-01 16:12:00,39.0,21.4,30.21,SSE,158,12.0,18.0,49,0.00,,,0.02,91,Wunderground v.1.15,2013-02-01 23:12:00,
2013-02-01 16:18:00,39.0,22.4,30.22,SSE,156,11.0,19.0,51,0.00,,,0.02,77,Wunderground v.1.15,2013-02-01 23:18:00,
2013-02-01 16:24:00,38.9,22.8,30.22,SSE,156,13.0,13.0,52,0.00,,,0.02,239,Wunderground v.1.15,2013-02-01 23:24:00,
2013-02-01 16:30:00,39.1,22.5,30.22,SSE,157,12.0,12.0,51,0.00,,,0.02,88,Wunderground v.1.15,2013-02-01 23:30:00,
2013-02-01 16:36:00,39.2,22.1,30.23,SSW,202,12.0,15.0,50,0.00,,,0.02,167,Wunderground v.1.15,2013-02-01 23:36:00,
2013-02-01 16:42:00,39.2,22.1,30.23,SE,134,12.0,13.0,50,0.00,,,0.02,88,Wunderground v.1.15,2013-02-01 23:42:00,
2013-02-01 16:48:00,39.0,22.4,30.23,SSE,149,11.0,13.0,51,0.00,,,0.02,95,Wunderground v.1.15,2013-02-01 23:48:00,
2013-02-01 16:54:00,38.6,22.5,30.23,SE,145,9.0,11.0,52,0.00,,,0.02,35,Wunderground v.1.15,2013-02-01 23:54:00,
2013-02-01 17:00:00,38.1,22.0,30.23,SSE,168,10.0,10.0,52,0.00,,,0.02,26,Wunderground v.1.15,2013-02-02 00:00:00,
2013-02-01 17:06:00,37.8,22.2,30.24,SE,138,13.0,16.0,53,0.00,,,0.02,21,Wunderground v.1.15,2013-02-02 00:06:00,
2013-02-01 17:12:00,37.7,22.1,30.24,SE,142,13.0,15.0,53,0.00,,,0.02,18,Wunderground v.1.15,2013-02-02 00:12:00,
2013-02-01 17:18:00,37.5,22.3,30.24,SSE,152,12.0,15.0,54,0.00,,,0.02,14,Wunderground v.1.15,2013-02-02 00:18:00,
2013-02-01 17:24:00,37.2,22.5,30.24,SSE,159,11.0,13.0,55,0.00,,,0.02,11,Wunderground v.1.15,2013-02-02 00:24:00,
2013-02-01 17:30:00,36.9,22.7,30.24,SSE,149,11.0,11.0,56,0.00,,,0.02,7,Wunderground v.1.15,2013-02-02 00:30:00,
2013-02-01 17:36:00,36.7,22.9,30.25,SSE,165,9.0,11.0,57,0.00,,,0.02,5,Wunderground v.1.15,2013-02-02 00:36:00,
2013-02-01 17:42:00,36.5,22.7,30.25,South,176,9.0,9.0,57,0.00,,,0.02,0,Wunderground v.1.15,2013-02-02 00:42:00,
2013-02-01 17:48:00,36.4,22.2,30.25,South,173,9.0,13.0,56,0.00,,,0.02,0,Wunderground v.1.15,2013-02-02 00:48:00,
2013-02-01 17:54:00,36.5,22.7,30.26,SSE,155,10.0,13.0,57,0.00,,,0.02,0,Wunderground v.1.15,2013-02-02 00:54:00,
2013-02-01 18:00:00,36.4,22.2,30.26,SSE,164,10.0,10.0,56,0.00,,,0.02,0,Wunderground v.1.15,2013-02-02 01:00:00,
2013-02-01 18:06:00,36.4,22.2,30.26,South,174,10.0,11.0,56,0.00,,,0.02,0,Wunderground v.1.15,2013-02-02 01:06:00,
2013-02-01 18:14:00,36.5,22.3,30.26,SSE,160,9.0,12.0,56,0.00,,,0.02,0,Wunderground v.1.15,2013-02-02 01:14:00,
2013-02-01 18:20:00,36.2,22.0,30.26,SSE,150,10.0,13.0,56,0.00,,,0.02,0,Wunderground v.1.15,2013-02-02 01:20:00,
2013-02-01 18:26:00,36.1,22.3,30.27,South,173,11.0,13.0,57,0.00,,,0.02,0,Wunderground v.1.15,2013-02-02 01:26:00,
2013-02-01 18:32:00,36.0,22.2,30.28,SSE,152,10.0,14.0,57,0.00,,,0.02,0,Wunderground v.1.15,2013-02-02 01:32:00,
2013-02-01 18:38:00,36.1,22.3,30.28,South,181,11.0,15.0,57,0.00,,,0.02,0,Wunderground v.1.15,2013-02-02 01:38:00,
2013-02-01 18:44:00,36.0,22.6,30.28,WSW,243,9.0,11.0,58,0.00,,,0.02,0,Wunderground v.1.15,2013-02-02 01:44:00,
2013-02-01 18:50:00,35.7,22.4,30.29,South,172,5.0,5.0,58,0.00,,,0.02,0,Wunderground v.1.15,2013-02-02 01:50:00,
2013-02-01 18:56:00,35.3,22.4,30.29,SSW,205,5.0,6.0,59,0.00,,,0.02,0,Wunderground v.1.15,2013-02-02 01:56:00,
2013-02-01 19:02:00,35.0,22.5,30.29,SSW,201,5.0,12.0,60,0.00,,,0.02,0,Wunderground v.1.15,2013-02-02 02:02:00,
2013-02-01 19:08:00,34.8,22.3,30.29,SSE,164,5.0,12.0,60,0.00,,,0.02,0,Wunderground v.1.15,2013-02-02 02:08:00,
2013-02-01 19:14:00,34.8,22.3,30.29,SSE,150,7.0,15.0,60,0.00,,,0.02,0,Wunderground v.1.15,2013-02-02 02:14:00,
2013-02-01 19:20:00,35.1,22.6,30.30,SSE,148,10.0,10.0,60,0.00,,,0.02,0,Wunderground v.1.15,2013-02-02 02:20:00,
2013-02-01 19:26:00,35.2,22.7,30.30,SE,146,10.0,11.0,60,0.00,,,0.02,0,Wunderground v.1.15,2013-02-02 02:26:00,
2013-02-01 19:32:00,35.1,22.6,30.30,SSE,163,9.0,9.0,60,0.00,,,0.02,0,Wunderground v.1.15,2013-02-02 02:32:00,
2013-02-01 19:38:00,35.0,22.5,30.30,SSE,167,9.0,11.0,60,0.00,,,0.02,0,Wunderground v.1.15,2013-02-02 02:38:00,
2013-02-01 19:46:00,34.7,22.2,30.31,SSE,148,9.0,10.0,60,0.00,,,0.02,0,Wunderground v.1.15,2013-02-02 02:46:00,
2013-02-01 19:52:00,34.5,22.4,30.30,SSE,154,9.0,9.0,61,0.00,,,0.02,0,Wunderground v.1.15,2013-02-02 02:52:00,
2013-02-01 19:58:00,34.4,21.9,30.31,SE,143,10.0,14.0,60,0.00,,,0.02,0,Wunderground v.1.15,2013-02-02 02:58:00,
2013-02-01 20:04:00,34.4,21.9,30.31,SSE,151,11.0,13.0,60,0.00,,,0.02,0,Wunderground v.1.15,2013-02-02 03:04:00,
2013-02-01 20:10:00,34.4,21.9,30.32,SSE,163,11.0,12.0,60,0.00,,,0.02,0,Wunderground v.1.15,2013-02-02 03:10:00,
2013-02-01 20:16:00,34.3,22.2,30.32,SE,144,12.0,14.0,61,0.00,,,0.02,0,Wunderground v.1.15,2013-02-02 03:16:00,
2013-02-01 20:22:00,34.3,22.2,30.32,South,175,12.0,12.0,61,0.00,,,0.02,0,Wunderground v.1.15,2013-02-02 03:22:00,
2013-02-01 20:28:00,34.2,22.1,30.32,SSE,163,10.0,12.0,61,0.00,,,0.02,0,Wunderground v.1.15,2013-02-02 03:28:00,
2013-02-01 20:34:00,34.2,21.7,30.32,SSE,159,11.0,19.0,60,0.00,,,0.02,0,Wunderground v.1.15,2013-02-02 03:34:00,
2013-02-01 20:40:00,34.1,21.3,30.32,SSE,151,10.0,10.0,59,0.00,,,0.02,0,Wunderground v.1.15,2013-02-02 03:40:00,
2013-02-01 20:46:00,33.9,21.1,30.32,SSE,163,9.0,15.0,59,0.00,,,0.02,0,Wunderground v.1.15,2013-02-02 03:46:00,
2013-02-01 20:52:00,33.9,21.1,30.32,SE,142,9.0,9.0,59,0.00,,,0.02,0,Wunderground v.1.15,2013-02-02 03:52:00,
2013-02-01 20:58:00,33.7,21.3,30.33,South,187,7.0,9.0,60,0.00,,,0.02,0,Wunderground v.1.15,2013-02-02 03:58:00,
2013-02-01 21:04:00,33.6,21.2,30.33,SSE,161,6.0,6.0,60,0.00,,,0.02,0,Wunderground v.1.15,2013-02-02 04:04:00,
2013-02-01 21:10:00,33.5,21.5,30.33,SSE,151,6.0,16.0,61,0.00,,,0.02,0,Wunderground v.1.15,2013-02-02 04:10:00,
2013-02-01 21:16:00,33.4,21.4,30.33,South,187,7.0,16.0,61,0.00,,,0.02,0,Wunderground v.1.15,2013-02-02 04:16:00,
2013-02-01 21:22:00,33.3,21.7,30.33,SSE,154,7.0,7.0,62,0.00,,,0.02,0,Wunderground v.1.15,2013-02-02 04:22:00,
2013-02-01 21:28:00,33.0,21.4,30.33,SSE,155,5.0,9.0,62,0.00,,,0.02,0,Wunderground v.1.15,2013-02-02 04:28:00,
2013-02-01 21:34:00,32.8,21.2,30.33,SSE,159,5.0,6.0,62,0.00,,,0.02,0,Wunderground v.1.15,2013-02-02 04:34:00,
2013-02-01 21:40:00,32.6,21.0,30.34,SSE,163,7.0,7.0,62,0.00,,,0.02,0,Wunderground v.1.15,2013-02-02 04:40:00,
2013-02-01 21:46:00,32.5,20.9,30.34,SSE,147,6.0,11.0,62,0.00,,,0.02,0,Wunderground v.1.15,2013-02-02 04:46:00,
2013-02-01 21:52:00,32.6,21.0,30.34,SSE,148,8.0,12.0,62,0.00,,,0.02,0,Wunderground v.1.15,2013-02-02 04:52:00,
2013-02-01 21:58:00,32.7,21.1,30.35,South,182,8.0,12.0,62,0.00,,,0.02,0,Wunderground v.1.15,2013-02-02 04:58:00,
2013-02-01 22:00:00,32.7,21.1,30.35,SSE,148,8.0,8.0,62,0.00,,,0.02,0,Wunderground v.1.15,2013-02-02 05:00:00,
2013-02-01 22:04:00,32.8,21.2,30.35,SSE,149,8.0,11.0,62,0.00,,,0.02,0,Wunderground v.1.15,2013-02-02 05:04:00,
2013-02-01 22:10:00,32.8,21.2,30.35,SSE,149,9.0,9.0,62,0.00,,,0.02,0,Wunderground v.1.15,2013-02-02 05:10:00,
2013-02-01 22:12:00,32.8,21.2,30.35,SSE,153,8.0,9.0,62,0.00,,,0.02,0,Wunderground v.1.15,2013-02-02 05:12:00,
2013-02-01 22:14:00,32.8,21.2,30.35,SE,135,8.0,12.0,62,0.00,,,0.02,0,Wunderground v.1.15,2013-02-02 05:14:00,
2013-02-01 22:20:00,32.7,21.1,30.35,SSE,161,8.0,8.0,62,0.00,,,0.02,0,Wunderground v.1.15,2013-02-02 05:20:00,
2013-02-01 22:26:00,32.7,21.5,30.36,SE,144,9.0,10.0,63,0.00,,,0.02,0,Wunderground v.1.15,2013-02-02 05:26:00,
2013-02-01 22:32:00,32.6,21.4,30.36,SE,144,9.0,9.0,63,0.00,,,0.02,0,Wunderground v.1.15,2013-02-02 05:32:00,
2013-02-01 22:38:00,32.6,21.4,30.36,SSE,159,8.0,11.0,63,0.00,,,0.02,0,Wunderground v.1.15,2013-02-02 05:38:00,
2013-02-01 22:44:00,32.5,20.9,30.36,SE,142,7.0,10.0,62,0.00,,,0.02,0,Wunderground v.1.15,2013-02-02 05:44:00,
2013-02-01 22:50:00,32.5,20.9,30.36,SSE,158,9.0,11.0,62,0.00,,,0.02,0,Wunderground v.1.15,2013-02-02 05:50:00,
2013-02-01 22:56:00,32.6,21.0,30.36,SSE,150,10.0,11.0,62,0.00,,,0.02,0,Wunderground v.1.15,2013-02-02 05:56:00,
2013-02-01 23:02:00,32.6,21.0,30.36,SE,140,8.0,9.0,62,0.00,,,0.02,0,Wunderground v.1.15,2013-02-02 06:02:00,
2013-02-01 23:08:00,32.3,20.7,30.36,SE,144,4.0,9.0,62,0.00,,,0.02,0,Wunderground v.1.15,2013-02-02 06:08:00,
2013-02-01 23:14:00,32.0,20.4,30.36,SSE,150,4.0,4.0,62,0.00,,,0.02,0,Wunderground v.1.15,2013-02-02 06:14:00,
2013-02-01 23:20:00,31.6,20.4,30.36,SSE,150,3.0,3.0,63,0.00,,,0.02,0,Wunderground v.1.15,2013-02-02 06:20:00,
2013-02-01 23:26:00,31.4,19.9,30.36,SSE,150,1.0,3.0,62,0.00,,,0.02,0,Wunderground v.1.15,2013-02-02 06:26:00,
2013-02-01 23:32:00,30.9,19.0,30.36,SSE,150,1.0,2.0,61,0.00,,,0.02,0,Wunderground v.1.15,2013-02-02 06:32:00,
2013-02-01 23:38:00,30.2,18.7,30.37,SSE,149,2.0,3.0,62,0.00,,,0.02,0,Wunderground v.1.15,2013-02-02 06:38:00,
2013-02-01 23:44:00,29.6,18.5,30.37,SSE,148,2.0,3.0,63,0.00,,,0.02,0,Wunderground v.1.15,2013-02-02 06:44:00,
2013-02-01 23:50:00,29.0,18.7,30.37,SE,132,2.0,2.0,65,0.00,,,0.02,0,Wunderground v.1.15,2013-02-02 06:50:00,
2013-02-01 23:56:00,28.5,18.6,30.37,SE,132,2.0,3.0,66,0.00,,,0.02,0,Wunderground v.1.15,2013-02-02 06:56:00,